FLOCK 2K-27 (42882 NORAD) Tracking and Keplerian Element Data

This shows tracking and keplerian element data for the satellite.

Feedback or suggestion? Click here.




ElementValue
Catalog42882
NameFLOCK 2K-27
Epoch Orbit3291
Epoch Day46.21309114
Epoch Year2018
RAAN309.0175
Inclination96.9928
Eccentricity0.0012698
Argument of Perigee176.4064
Mean Anonmoly183.7274
Mean Motion15.3530628
Decay Rate1.576E-05
L11 42882U 17042BK 18046.21309114 .00001576 00000-0 48028-4 0 9993
L22 42882 96.9928 309.0175 0012698 176.4064 183.7274 15.35306280 32918

Live tracking and technical data element details for FLOCK 2K-27 (NORAD 42882). FLOCK 2K-27 can be tracked NOW for your location showing map with azimuth and elevation plus other details from your city location.

Track the satellite on the map from your city or location and see movement details for azimuth, elevation, latitude, longitude, range, height, and movement on the map or in text.







IsCatalogInMostPopularTable: catalog: 42882, numindb: 84
Update: records affected: 1



GetName: 42882 FLOCK 2K-27

Hit Count: updated at: Sat, 21 Jul 2018 08:02:02 GMT